Time,TemperatureF,DewpointF,PressureIn,WindDirection,WindDirectionDegrees,WindSpeedMPH,WindSpeedGustMPH,Humidity,HourlyPrecipIn,Conditions,Clouds,dailyrainin,SolarRadiationWatts/m^2,SoftwareType,DateUTC
2013-04-14 00:22:00,54.0,50.0,-100.00,SE,130,11.0,15.0,86,0.00,,,0.00,0.000000,,2013-04-14 10:22:00,
2013-04-14 00:32:00,54.0,50.0,-100.00,SE,130,11.0,15.0,86,0.00,,,0.00,0.000000,,2013-04-14 10:32:00,
2013-04-14 00:42:00,54.0,50.0,-100.00,SE,130,11.0,15.0,86,0.00,,,0.00,0.000000,,2013-04-14 10:42:00,
2013-04-14 00:52:00,54.0,50.0,-100.00,SE,130,11.0,15.0,86,0.00,,,0.00,0.000000,,2013-04-14 10:52:00,
2013-04-14 01:22:00,57.0,47.0,-100.00,ESE,116,13.0,17.0,69,0.00,,,0.00,0.000000,,2013-04-14 11:22:00,
2013-04-14 01:32:00,57.0,47.0,-100.00,ESE,116,13.0,17.0,69,0.00,,,0.00,0.000000,,2013-04-14 11:32:00,
2013-04-14 01:42:00,57.0,47.0,-100.00,ESE,116,13.0,17.0,69,0.00,,,0.00,0.000000,,2013-04-14 11:42:00,
2013-04-14 01:52:00,57.0,47.0,-100.00,ESE,116,13.0,17.0,69,0.00,,,0.00,0.000000,,2013-04-14 11:52:00,
2013-04-14 02:21:00,53.0,48.0,-100.00,North,356,2.0,18.0,83,0.00,,,0.00,0.000000,,2013-04-14 12:21:00,
2013-04-14 02:32:00,53.0,48.0,-100.00,North,356,2.0,18.0,83,0.00,,,0.00,0.000000,,2013-04-14 12:32:00,
2013-04-14 02:42:00,53.0,48.0,-100.00,North,356,2.0,18.0,83,0.00,,,0.00,0.000000,,2013-04-14 12:42:00,
2013-04-14 02:51:00,53.0,48.0,-100.00,North,356,2.0,18.0,83,0.00,,,0.00,0.000000,,2013-04-14 12:51:00,
2013-04-14 03:22:00,53.0,50.0,-100.00,SE,145,10.0,14.0,91,0.00,,,0.00,0.000000,,2013-04-14 13:22:00,
2013-04-14 03:32:00,53.0,50.0,-100.00,SE,145,10.0,14.0,91,0.00,,,0.00,0.000000,,2013-04-14 13:32:00,
2013-04-14 03:42:00,53.0,50.0,-100.00,SE,145,10.0,14.0,91,0.00,,,0.00,0.000000,,2013-04-14 13:42:00,
2013-04-14 03:52:00,53.0,50.0,-100.00,SE,145,10.0,14.0,91,0.00,,,0.00,0.000000,,2013-04-14 13:52:00,
2013-04-14 04:22:00,56.0,43.0,-100.00,NE,50,9.0,19.0,62,0.00,,,0.00,0.000000,,2013-04-14 14:22:00,
2013-04-14 04:32:00,56.0,43.0,-100.00,NE,50,9.0,19.0,62,0.00,,,0.00,0.000000,,2013-04-14 14:32:00,
2013-04-14 04:42:00,56.0,43.0,-100.00,NE,50,9.0,19.0,62,0.00,,,0.00,0.000000,,2013-04-14 14:42:00,
2013-04-14 04:52:00,56.0,43.0,-100.00,NE,50,9.0,19.0,62,0.00,,,0.00,0.000000,,2013-04-14 14:52:00,
2013-04-14 05:22:00,56.0,51.0,-100.00,SE,139,8.0,10.0,83,0.00,,,0.00,0.000000,,2013-04-14 15:22:00,
2013-04-14 05:33:00,56.0,51.0,-100.00,SE,139,8.0,10.0,83,0.00,,,0.00,0.000000,,2013-04-14 15:33:00,
2013-04-14 05:43:00,56.0,51.0,-100.00,SE,139,8.0,10.0,83,0.00,,,0.00,0.000000,,2013-04-14 15:43:00,
2013-04-14 05:52:00,56.0,51.0,-100.00,SE,139,8.0,10.0,83,0.00,,,0.00,0.000000,,2013-04-14 15:52:00,
2013-04-14 06:22:00,51.0,48.0,-100.00,ESE,120,10.0,13.0,91,0.00,,,0.00,0.000000,,2013-04-14 16:22:00,
2013-04-14 06:32:00,51.0,48.0,-100.00,ESE,120,10.0,13.0,91,0.00,,,0.00,0.000000,,2013-04-14 16:32:00,
2013-04-14 06:43:00,51.0,48.0,-100.00,ESE,120,10.0,13.0,91,0.00,,,0.00,0.000000,,2013-04-14 16:43:00,
2013-04-14 06:52:00,51.0,48.0,-100.00,ESE,120,10.0,13.0,91,0.00,,,0.00,0.000000,,2013-04-14 16:52:00,
2013-04-14 07:22:00,60.0,41.0,-100.00,East,89,4.0,16.0,50,0.00,,,0.00,47.000000,,2013-04-14 17:22:00,
2013-04-14 07:32:00,60.0,41.0,-100.00,East,89,4.0,16.0,50,0.00,,,0.00,47.000000,,2013-04-14 17:32:00,
2013-04-14 07:42:00,60.0,41.0,-100.00,East,89,4.0,16.0,50,0.00,,,0.00,47.000000,,2013-04-14 17:42:00,
2013-04-14 07:52:00,60.0,41.0,-100.00,East,89,4.0,16.0,50,0.00,,,0.00,47.000000,,2013-04-14 17:52:00,
2013-04-14 08:22:00,66.0,50.0,-100.00,WNW,286,3.0,10.0,57,0.00,,,0.00,293.000000,,2013-04-14 18:22:00,
2013-04-14 08:32:00,66.0,50.0,-100.00,WNW,286,3.0,10.0,57,0.00,,,0.00,293.000000,,2013-04-14 18:32:00,
2013-04-14 08:42:00,66.0,50.0,-100.00,WNW,286,3.0,10.0,57,0.00,,,0.00,293.000000,,2013-04-14 18:42:00,
2013-04-14 08:52:00,66.0,50.0,-100.00,WNW,286,3.0,10.0,57,0.00,,,0.00,293.000000,,2013-04-14 18:52:00,
2013-04-14 09:22:00,67.0,54.0,-100.00,North,349,6.0,13.0,63,0.00,,,0.00,560.000000,,2013-04-14 19:22:00,
2013-04-14 09:32:00,67.0,54.0,-100.00,North,349,6.0,13.0,63,0.00,,,0.00,560.000000,,2013-04-14 19:32:00,
2013-04-14 09:42:00,67.0,54.0,-100.00,North,349,6.0,13.0,63,0.00,,,0.00,560.000000,,2013-04-14 19:42:00,
2013-04-14 09:52:00,67.0,54.0,-100.00,North,349,6.0,13.0,63,0.00,,,0.00,560.000000,,2013-04-14 19:52:00,
2013-04-14 10:22:00,70.0,55.0,-100.00,NNW,333,6.0,13.0,58,0.00,,,0.00,812.000000,,2013-04-14 20:22:00,
2013-04-14 10:32:00,70.0,55.0,-100.00,NNW,333,6.0,13.0,58,0.00,,,0.00,812.000000,,2013-04-14 20:32:00,
2013-04-14 10:42:00,70.0,55.0,-100.00,NNW,333,6.0,13.0,58,0.00,,,0.00,812.000000,,2013-04-14 20:42:00,
2013-04-14 10:52:00,70.0,55.0,-100.00,NNW,333,6.0,13.0,58,0.00,,,0.00,812.000000,,2013-04-14 20:52:00,
2013-04-14 11:22:00,72.0,55.0,-100.00,NNW,327,8.0,17.0,56,0.00,,,0.00,999.000000,,2013-04-14 21:22:00,
2013-04-14 11:33:00,72.0,55.0,-100.00,NNW,327,8.0,17.0,56,0.00,,,0.00,999.000000,,2013-04-14 21:33:00,
2013-04-14 11:43:00,72.0,55.0,-100.00,NNW,327,8.0,17.0,56,0.00,,,0.00,999.000000,,2013-04-14 21:43:00,
2013-04-14 11:53:00,72.0,55.0,-100.00,NNW,327,8.0,17.0,56,0.00,,,0.00,999.000000,,2013-04-14 21:53:00,
2013-04-14 12:23:00,67.0,60.0,-100.00,NW,309,11.0,21.0,77,0.00,,,0.00,751.000000,,2013-04-14 22:23:00,
2013-04-14 12:32:00,67.0,60.0,-100.00,NW,309,11.0,21.0,77,0.00,,,0.00,751.000000,,2013-04-14 22:32:00,
2013-04-14 12:43:00,67.0,60.0,-100.00,NW,309,11.0,21.0,77,0.00,,,0.00,751.000000,,2013-04-14 22:43:00,
2013-04-14 12:52:00,67.0,60.0,-100.00,NW,309,11.0,21.0,77,0.00,,,0.00,751.000000,,2013-04-14 22:52:00,
2013-04-14 13:22:00,66.0,58.0,-100.00,NW,323,10.0,18.0,76,0.00,,,0.00,578.000000,,2013-04-14 23:22:00,
2013-04-14 13:32:00,66.0,58.0,-100.00,NW,323,10.0,18.0,76,0.00,,,0.00,578.000000,,2013-04-14 23:32:00,
2013-04-14 13:42:00,66.0,58.0,-100.00,NW,323,10.0,18.0,76,0.00,,,0.00,578.000000,,2013-04-14 23:42:00,
2013-04-14 13:52:00,66.0,58.0,-100.00,NW,323,10.0,18.0,76,0.00,,,0.00,578.000000,,2013-04-14 23:52:00,
2013-04-14 14:22:00,67.0,59.0,-100.00,NNW,336,10.0,18.0,76,0.00,,,0.00,610.000000,,2013-04-15 00:22:00,
2013-04-14 14:32:00,67.0,59.0,-100.00,NNW,336,10.0,18.0,76,0.00,,,0.00,610.000000,,2013-04-15 00:32:00,
2013-04-14 14:42:00,67.0,59.0,-100.00,NNW,336,10.0,18.0,76,0.00,,,0.00,610.000000,,2013-04-15 00:42:00,
2013-04-14 14:52:00,67.0,59.0,-100.00,NNW,336,10.0,18.0,76,0.00,,,0.00,610.000000,,2013-04-15 00:52:00,
2013-04-14 15:23:00,64.0,58.0,-100.00,NW,315,10.0,18.0,80,0.00,,,0.00,502.000000,,2013-04-15 01:23:00,
2013-04-14 15:32:00,64.0,58.0,-100.00,NW,315,10.0,18.0,80,0.00,,,0.00,502.000000,,2013-04-15 01:32:00,
2013-04-14 15:42:00,64.0,58.0,-100.00,NW,315,10.0,18.0,80,0.00,,,0.00,502.000000,,2013-04-15 01:42:00,
2013-04-14 15:52:00,64.0,58.0,-100.00,NW,315,10.0,18.0,80,0.00,,,0.00,502.000000,,2013-04-15 01:52:00,
2013-04-14 16:22:00,67.0,59.0,-100.00,NW,318,6.0,14.0,75,0.00,,,0.00,399.000000,,2013-04-15 02:22:00,
2013-04-14 16:32:00,67.0,59.0,-100.00,NW,318,6.0,14.0,75,0.00,,,0.00,399.000000,,2013-04-15 02:32:00,
2013-04-14 16:42:00,67.0,59.0,-100.00,NW,318,6.0,14.0,75,0.00,,,0.00,399.000000,,2013-04-15 02:42:00,
2013-04-14 16:52:00,67.0,59.0,-100.00,NW,318,6.0,14.0,75,0.00,,,0.00,399.000000,,2013-04-15 02:52:00,
2013-04-14 17:22:00,64.0,59.0,-100.00,NW,310,10.0,16.0,84,0.00,,,0.00,207.000000,,2013-04-15 03:22:00,
2013-04-14 17:32:00,64.0,59.0,-100.00,NW,310,10.0,16.0,84,0.00,,,0.00,207.000000,,2013-04-15 03:32:00,
2013-04-14 17:43:00,64.0,59.0,-100.00,NW,310,10.0,16.0,84,0.00,,,0.00,207.000000,,2013-04-15 03:43:00,
2013-04-14 17:53:00,64.0,59.0,-100.00,NW,310,10.0,16.0,84,0.00,,,0.00,207.000000,,2013-04-15 03:53:00,
2013-04-14 18:22:00,60.0,57.0,-100.00,NNW,338,7.0,11.0,91,0.00,,,0.00,58.000000,,2013-04-15 04:22:00,
2013-04-14 18:33:00,60.0,57.0,-100.00,NNW,338,7.0,11.0,91,0.00,,,0.00,58.000000,,2013-04-15 04:33:00,
2013-04-14 18:42:00,60.0,57.0,-100.00,NNW,338,7.0,11.0,91,0.00,,,0.00,58.000000,,2013-04-15 04:42:00,
2013-04-14 18:52:00,60.0,57.0,-100.00,NNW,338,7.0,11.0,91,0.00,,,0.00,58.000000,,2013-04-15 04:52:00,
2013-04-14 19:23:00,59.0,57.0,-100.00,NW,311,4.0,9.0,94,0.00,,,0.00,7.000000,,2013-04-15 05:23:00,
2013-04-14 19:32:00,59.0,57.0,-100.00,NW,311,4.0,9.0,94,0.00,,,0.00,7.000000,,2013-04-15 05:32:00,
2013-04-14 19:42:00,59.0,57.0,-100.00,NW,311,4.0,9.0,94,0.00,,,0.00,7.000000,,2013-04-15 05:42:00,
2013-04-14 19:52:00,59.0,57.0,-100.00,NW,311,4.0,9.0,94,0.00,,,0.00,7.000000,,2013-04-15 05:52:00,
2013-04-14 20:22:00,59.0,58.0,-100.00,North,9,2.0,9.0,96,0.00,,,0.00,0.000000,,2013-04-15 06:22:00,
2013-04-14 20:33:00,59.0,58.0,-100.00,North,9,2.0,9.0,96,0.00,,,0.00,0.000000,,2013-04-15 06:33:00,
2013-04-14 20:42:00,59.0,58.0,-100.00,North,9,2.0,9.0,96,0.00,,,0.00,0.000000,,2013-04-15 06:42:00,
2013-04-14 20:52:00,59.0,58.0,-100.00,North,9,2.0,9.0,96,0.00,,,0.00,0.000000,,2013-04-15 06:52:00,
2013-04-14 21:41:00,59.0,56.0,-100.00,ESE,105,5.0,7.0,90,0.00,,,0.00,0.000000,,2013-04-15 07:41:00,
2013-04-14 21:52:00,59.0,56.0,-100.00,ESE,105,5.0,7.0,90,0.00,,,0.00,0.000000,,2013-04-15 07:52:00,
2013-04-14 23:22:00,58.0,57.0,-100.00,SE,133,1.0,6.0,96,-99.99,,,0.00,0.000000,,2013-04-15 09:22:00,
2013-04-14 23:32:00,58.0,57.0,-100.00,SE,133,1.0,6.0,96,-99.99,,,0.00,0.000000,,2013-04-15 09:32:00,
2013-04-14 23:42:00,58.0,57.0,-100.00,SE,133,1.0,6.0,96,-99.99,,,0.00,0.000000,,2013-04-15 09:42:00,
2013-04-14 23:52:00,58.0,57.0,-100.00,SE,133,1.0,6.0,96,-99.99,,,0.00,0.000000,,2013-04-15 09:52:00,